Location: Ellerstadt
(49.4644°N, 8.2615°E)
Time: 20:18:00
(UTC+00:00)

Altair - Visible Passes

Search period start: 13 June 2021 00:00
Search period end: 23 June 2021 00:00
Orbit: 1501 x 1683 km, 47.2° (Epoch: 12 June)

Date Brightness Start Highest point End Pass type
(mag) Time Alt. Az. Time Alt. Az. Time Alt. Az.
13 Jun 8.3 20:26:46 10° WNW 20:35:54 42° SW 20:45:10 10° SSE visible
13 Jun 9.2 22:34:15 10° W 22:38:35 14° WSW 22:42:57 10° SSW visible
14 Jun 8.3 20:01:33 10° WNW 20:10:47 44° SW 20:20:10 10° SSE visible
14 Jun 9.2 22:08:28 10° W 22:13:35 15° SW 22:18:44 10° SSW visible
15 Jun 9.2 21:42:49 10° W 21:48:34 17° SW 21:54:21 10° SSW visible
16 Jun 9.1 21:17:16 10° W 21:23:32 19° SW 21:29:51 10° SSW visible
17 Jun 9.1 20:51:47 10° W 20:58:30 21° SW 21:05:17 10° S visible
18 Jun 9.1 20:26:22 10° W 20:33:27 22° SW 20:40:38 10° S visible
